Погода Жамбейты

Погода Жамбейты : погода сейчас, прогноз погоды и архив. Всё, что Вы хотите узнать о погоде Жамбейты!

Хотите узнать прогноз погоды Жамбейты? Тогда Вам сюда: Погода Жамбейты

Поиск расширенной информации на нашем сайте:

Полезная информация:

Другие новости

Новости СМИ2

Главная страница сайта

Новости сайта

03.07.2017

Напоминаем, что на нашем специализированном сайте Метеоцентр.Азия вы можете получить высокодетализированные автоматические прогнозы погоды по пунктам России, СНГ и мира в авиационном формате (включающие направление и скорость ветра, видимость, явления погоды, количество и форму облачности, нижнюю и верхнюю границу облачности).

Рекомендуем:

Погода Жамбейты - сегодня

Время (UTC), дата Ветер
(°,м/с) 
Видим.   Явления Облачность Т
(°С)
Тd
(°С)
f(%) Тe
(°С)
Pmin
(гПа)
dP
(гПа)
Po
(мм)
O2
(г/м3)
Тmin Tmax R s Состояние
почвы
18 17.03.19 090 (В) н/о    6/0 средняя 
[Ac trans]
+0 +0 100 -2  1017.3  0.5  760  306    +1.4  0.0     
21 17.03.19 100 (В) н/о    4/0 средняя 
[Ac trans]
-0.6 -0.6 100 -3  1017.9  0.6  761  307           
00 18.03.19 070 (В) н/о    10/0 средняя 
[As op]
-1.4 -1.4 100 -3  1018  0.1  761  308           
03 18.03.19 070 (В) 20000 м  {снег}  10/0 средняя 
[As op]
-2.9 -2.9 100 -4  1018.2  0.1  761  310        49  мокрый или
старый снег
50-90% 
06 18.03.19 050 (СВ) 2000 м  {снег}  10/10 600 м 
[Sc]
-1.9 -1.9 100 -5  1019.9  1.7  762  309  -0.2    0.1     
09 18.03.19 050 (СВ) 20000 м    10/10 600 м 
[Sc]
-1 -1 100 -4  1020.6  0.7  762  308           
12 18.03.19 050 (СВ) 20000 м    10/10 600 м 
[Sc]
-1 -1 100 -4  1021.2  0.6  763  309           
15 18.03.19 040 (СВ) 20000 м    10/10 600 м 
[Sc]
-1.2 -1.2 100 -3  1022.2  764  309    -0.6       
18 18.03.19 050 (СВ) н/о    10/10 600 м 
[Sc]
-1.5 -1.5 100 -2  1023.1  0.8  764  310    -0.6       
21 18.03.19 060 (СВ) н/о    10/10 600 м 
[Sc]
-0.9 -0.9 100 -2  1023.1  764  309           
00 19.03.19 070 (В) н/о    10/10 600 м 
[Sc]
-0.3 -0.3 100 -1  1023.4  0.3  764  308           
03 19.03.19 050 (СВ) 20000 м    10/10 600 м 
[Sc]
-0.6 -0.6 100 -2  1024.8  1.4  766  309        49  мокрый или
старый снег
50-90% 
06 19.03.19 050 (СВ) 20000 м    9/9 600 м 
[Sc]
-0.3 -0.3 100 -3  1026.2  1.5  767  309  -1.6         
09 19.03.19 050 (СВ) 20000 м    8/0 средняя 
[Ac trans]
+0.5 +0.5 100 1026.2  767  308           
12 19.03.19 050 (СВ) 20000 м    4/0 средняя 
[Ac trans]
+0.9 +0.9 100 -1  1025.9  -0.2  767  308           
15 19.03.19 020 (С) 20000 м    ясно 
-1.2 -1.2 100 -2  1026.7  0.7  767  311    +1.1       
18 19.03.19 060 (СВ) н/о    ясно 
-2.8 -2.8 100 -5  1027.2  0.5  775  316    +1.1       
21 19.03.19 030 (СВ) н/о    10/10 600 м 
[Sc]
-0.8 -0.8 100 -3  1026.5  -0.7  767  310           
00 20.03.19 040 (СВ) н/о    4/4 600 м 
[Sc]
-1.7 -1.7 100 -4  1025.8  0.7  766  311           
03 20.03.19 440 () 20000 м    4/4 600 м 
[Sc]
-2.7 -2.7 100 -5  1025.8  766  312        48  сухой снег
50-90% 
06 20.03.19 050 (СВ) 20000 м    10/10 600 м 
[Sc]
+0.4 +0.4 100 -3  1026  0.2  767  308  -3.1         
09 20.03.19 050 (СВ) 20000 м    9/0 средняя 
[Ac trans]
+2.1 +2.1 100 -1  1025.1  -0.8  766  306           
12 20.03.19 040 (СВ) 20000 м    9/9 600 м 
[Sc]
+1.7 +1.7 100 -1  1024.1  -1  765  306           
15 20.03.19 050 (СВ) 20000 м    8/8 600 м 
[Sc]
+1.2 +1.2 100 -1  1023.3  -0.8  765  307    +2.3       
18 20.03.19 050 (СВ) н/о    10/0 средняя 
[Ac As]
+0.8 +0.8 100 1024  0.7  765  307    +2.3       
Время (UTC), дата Ветер
(°,м/с) 
Видим.   Явления Облачность Т
(°С)
Тd
(°С)
f(%) Тe
(°С)
Pmin
(гПа)
dP
(гПа)
Po
(мм)
O2
(г/м3)
Тmin Tmax R s Состояние
почвы

Для получения пояснительной информации подведите курсор к названию столбца.

ПОГОДА Жамбейты - архив

Всё, что Вы хотите узнать о погоде Жамбейты - удобно и подробно!

Выберите нужную дату (начиная с 1 января 2018* года) и нажмите кнопку "Найти".
Будут отображены архивные сводки погоды по пункту Жамбейты, начиная с указанной даты.


Отображать данные в формате CSV (для использования в таблицах Excel)


Внимание! Наш архив погоды предназначен исключительно для личного некоммерческого использования в познавательных целях. Если Вам необходимы официальные справки о состоянии погоды (для производственных, юридических, коммерческих и т.п. целей), обращайтесь в органы Росгидромета.

*Примечание: данная дата относится к архиву по метеостанциям СССР (Россия, СНГ, Балтия).
Архив по метеостанциям Зарубежной Европы и Азии (кроме Китая) хранится 10 дней, по другим регионам земного шара (Китай, Африка, Америка, Австралия, Океания) - 1 день.

Жамбейты - район местоположения метеостанции


Название, широта, долгота, высота метеостанции:
Жамбейты 50.2°ш. 52.6°д. 32 м над ур. моря [Казахстан]

Дополнительная информация

В oтличие oт бoльшинства пoгoдных сайтoв мы публикуем пoдрoбную метеoинфoрмацию в детальнoм прoфессиoнальнoм фoрмате.

Характеристики температуры и влажнoсти вoздуха измеряются на высoте 2 м в тени вдали oт зданий и деревьев.
Скoрoсть ветра измеряется на высoте 10 м (на урoвне рoста челoвека скoрoсть ветра ниже в 1.5-2 раза). Если метеoстанция нахoдится в гoрoде или в лесу, тo скoрoсть ветра занижена на 2-4 м/с пo сравнению с oткрытым местoм. Скoрoсть ветра над акватoриями крупных рек и oзёр, а также на вершинах хoлмoв на 2-5 м/с выше, чем в oбычных услoвиях.
Атмoсфернoе давление в разных тoчках местнoсти мoжет значительнo oтличаться oт давления на метеoстанции, в зависимoсти oт услoвий рельефа (при пoдъёме на 10 м давление пoнижается примернo на 1 мм рт.ст.).